sat.trackr.live / text

‹ back to catalog

KUIPER-00262

NORAD 67788 · 2026-030AA

PAYLOAD ACTIVE UNKNOWN

§ Identity

Operator
Country
US
Launch date
2026-02-12
Launch site
FRGUI
Launch vehicle
Mass (kg)
RCS (m²)

External: N2YO · Heavens-Above · Gunter

§ Orbital elements

Epoch: 2026-09-20T22:23:53.134368Z

Period
97.30 min
Inclination
51.9004°
Eccentricity
0.0000962
Mean motion
14.79937124 rev/d
Perigee alt
628.8 km
Apogee alt
630.2 km
Semi-major
7,007.7 km
B*
2.6854e-4
RAAN
52.2648°
Arg perigee
134.3477°
Mean anomaly
225.7564°
Rev number
3,433

§ Raw data

KUIPER-002621 67788U 26030AA  26263.93325387  .00001827  00000+0  26854-3 0  99912 67788  51.9004  52.2648 0000962 134.3477 225.7564 14.79937124 34331

JSON: /api/v1/satellites/67788 · /tle

For live sub-satellite position, see the globe view (requires WebGL).

§ Visibility from observer

Set your observer location to see the next 7 days of passes ≥ 10°. The values pass through the URL so the page stays shareable.

No JS? Fill the form by hand. The geolocation button needs JavaScript.